Temperature
12 13 13 13 13 13 12 12 12 13 12 12 12 12 12 12 12 12 11 11 11 11 11 11 11 11 10 10 10 10 10 10 10 10 10 10 10 10 10 10 10 10 10
12 12 12 12 12 12 12 12 12 12 12 12 12 11 11 11 11 11 11 11 11 11 11 10 10 10 10 10 10 10 10 10 10 10 10 10 10 10 10 10 9 9 9
12 12 12 12 12 12 12 12 12 12 12 11 11 11 11 11 11 11 11 11 10 10 10 10 10 10 10 10 9 9 9 10 10 9 9 9 9 9 9 9 9 9 9
11 11 12 11 11 11 11 11 11 11 11 11 11 11 11 10 10 10 10 10 10 10 10 10 10 10 10 9 9 9 9 9 9 9 9 9 9 8 8 8 8 8 8
11 11 11 11 11 11 11 11 11 11 11 11 11 10 10 10 10 10 10 10 10 10 10 10 10 9 9 9 9 9 9 9 9 9 8 8 8 8 8 8 8 8 8
11 11 11 11 11 11 11 11 11 11 11 10 10 10 10 10 10 10 10 10 9 9 9 9 9 9 9 9 9 9 8 8 8 8 8 8 8 8 7 7 7 7 7
10 10 10 11 11 11 11 11 10 10 10 10 10 9 9 9 9 9 9 9 9 9 9 9 9 9 9 9 9 8 8 8 8 8 8 8 7 7 7 7 7 7 7
10 10 10 10 10 10 10 10 10 10 10 10 10 9 8 8 8 8 9 9 9 9 9 9 9 9 9 9 8 8 8 8 8 7 7 7 7 7 7 6 6 6 6
9 9 10 10 10 10 10 10 10 10 10 9 10 10 9 9 8 8 8 8 8 8 8 8 8 8 8 8 8 8 8 7 7 7 7 6 6 6 6 6 6 6 6
9 9 9 9 9 9 9 9 10 9 10 9 9 9 9 9 9 8 8 8 8 8 8 8 8 8 8 7 7 7 7 7 7 7 6 6 6 6 5 5 5 5 5
8 8 9 9 9 9 9 9 9 9 9 9 9 9 9 9 9 9 8 8 8 8 7 7 7 7 7 7 7 7 7 6 6 6 6 5 5 5 5 5 5 5 5
8 8 8 8 8 9 9 9 9 8 8 8 8 8 9 9 9 9 8 8 7 7 7 7 7 7 7 6 6 6 6 6 6 6 5 5 5 5 5 5 5 4 4
7 7 7 8 8 8 8 8 8 8 8 8 8 8 8 8 8 8 8 8 7 7 7 7 7 6 6 6 6 6 6 6 5 5 5 5 5 5 5 5 4 4 4
7 7 7 7 7 7 7 8 7 7 7 8 8 7 8 8 8 8 7 7 7 6 6 7 6 6 6 6 6 5 5 5 5 5 5 5 4 4 4 4 4 4 4
7 7 7 7 7 7 7 7 7 7 7 7 7 7 7 7 7 7 7 7 7 6 6 6 6 6 6 5 5 5 5 5 4 4 4 4 4 4 4 4 4 3 3
6 7 7 7 7 7 7 7 7 7 7 7 7 7 7 7 7 7 7 6 6 6 5 6 6 5 5 5 5 5 4 4 4 4 4 4 4 3 3 3 3 3 3
6 6 6 6 6 6 6 6 6 6 6 6 6 6 6 6 6 6 6 6 6 6 5 5 5 5 5 4 4 4 4 4 4 3 3 3 3 3 3 3 2 2 2
6 6 6 6 6 6 6 6 6 6 6 6 6 6 6 6 6 6 6 5 5 5 5 5 5 4 4 4 3 3 3 3 3 3 3 3 3 2 2 2 2 2 2
5 5 5 5 5 5 5 5 5 6 5 5 6 5 5 5 5 5 5 5 5 5 4 4 4 4 3 3 3 3 3 3 2 2 2 2 2 2 2 2 1 1 1
5 5 5 5 5 5 5 5 5 5 5 5 5 5 5 5 5 5 4 4 4 4 4 3 3 3 3 3 2 2 2 2 2 2 2 2 2 1 1 1 1 1 1
4 4 4 4 4 4 4 5 5 5 5 5 5 4 4 4 4 4 4 4 4 3 3 3 3 2 2 2 2 2 2 2 2 1 1 1 1 1 1 1 1 0 0
4 4 4 4 4 4 4 4 4 4 4 4 4 4 4 4 4 3 3 3 3 3 3 2 2 2 2 2 1 1 1 1 1 1 1 1 0 0 0 0 -0 -0 -1
4 4 4 4 4 4 4 4 4 4 4 4 4 4 3 3 3 3 3 3 3 2 2 2 2 2 2 1 1 1 0 0 0 -0 -0 0 -0 -0 -0 -1 -1 -1 -1
4 4 4 3 3 3 3 3 3 3 3 3 3 3 3 3 3 3 2 2 2 2 2 1 1 1 1 1 0 -0 -0 -1 -0 -1 -1 -1 -1 -1 -1 -1 -1 -2 -2
3 3 3 3 3 3 3 3 3 3 3 3 3 2 2 2 2 2 2 2 2 2 1 1 1 1 0 -0 -0 -1 -1 -1 -1 -1 -2 -2 -2 -2 -2 -1 -2 -2 -2
2 2 2 2 2 2 2 2 2 2 2 2 2 2 2 2 2 2 1 1 1 1 1 1 0 0 -0 -1 -1 -1 -1 -2 -2 -3 -2 -3 -3 -3 -3 -2 -2 -2 -3
Wind_Speed
5 5 4 5 5 5 6 5 5 5 5 7 8 8 7 8 9 9 9 9 8 8 7 8 9 9 9 8 8 8 7 7 8 8 8 8 7 7 6 7 7 8 9
6 5 4 4 4 5 6 6 5 5 5 6 6 8 8 9 9 10 10 9 9 8 8 8 9 9 8 8 7 7 6 6 7 7 7 7 6 6 6 6 7 7 7
7 6 4 4 4 5 6 6 6 6 5 5 5 6 7 8 9 9 9 10 9 9 8 8 8 9 8 7 7 6 6 6 6 6 6 6 6 5 5 5 5 6 6
9 6 5 4 5 6 5 4 4 5 5 5 4 4 5 7 8 8 9 9 9 8 8 8 8 8 7 7 6 6 6 6 5 5 5 5 4 5 4 4 4 4 5
8 7 5 5 7 5 4 4 4 5 5 5 5 4 3 4 5 7 7 8 8 8 8 7 7 7 6 6 5 5 5 5 4 4 4 4 4 4 4 4 4 4 4
6 6 5 5 6 4 4 4 4 4 5 5 6 5 3 3 4 4 5 6 7 8 7 7 7 6 6 5 4 4 4 3 3 3 3 3 3 4 4 3 3 3 4
5 5 4 5 5 4 5 6 5 5 4 4 5 4 4 4 3 2 3 4 5 6 7 6 5 5 4 4 4 3 3 3 3 3 3 3 3 3 3 3 4 4 4
5 5 4 4 4 4 5 6 5 3 2 3 4 4 2 1 1 1 1 3 3 4 4 4 4 4 4 4 3 3 2 3 3 3 3 3 3 3 4 4 4 5 5
4 4 5 5 4 4 5 5 6 5 4 1 2 4 4 4 1 1 0 1 2 2 2 3 4 4 4 4 2 2 2 2 2 3 3 3 4 4 4 5 5 5 5
3 4 4 4 4 4 4 5 4 3 5 4 1 1 2 4 4 2 1 0 1 2 3 2 3 4 4 4 3 2 1 1 2 3 4 4 4 5 5 5 6 6 6
2 3 4 4 4 4 4 4 3 3 3 3 3 2 2 2 2 3 2 1 1 1 2 3 4 4 4 4 3 1 0 2 3 4 5 5 5 6 6 6 7 7 7
1 2 3 3 4 4 4 4 4 4 3 3 2 2 3 3 3 3 3 3 2 2 1 2 3 4 5 5 3 2 1 2 4 5 6 6 6 7 7 8 8 8 8
2 3 2 3 3 3 4 4 4 4 4 4 3 2 2 3 3 3 4 3 2 1 1 1 2 4 4 5 4 3 3 3 5 6 7 7 7 8 8 9 9 9 9
3 3 3 3 3 4 4 3 3 3 3 3 3 2 1 2 3 3 4 4 3 1 1 3 1 3 4 4 4 4 4 5 6 7 7 8 8 8 9 10 10 10 10
2 4 4 3 3 3 3 4 3 3 3 3 3 3 2 1 2 3 3 4 5 3 4 3 2 2 4 4 4 4 5 6 7 7 8 8 9 9 10 10 11 11 11
4 4 4 3 3 3 3 3 4 4 4 3 3 3 2 2 2 2 3 3 3 4 4 3 3 2 3 3 4 4 6 6 7 7 8 9 9 10 10 11 11 12 12
4 4 4 4 4 4 4 4 4 5 5 4 3 4 3 3 3 3 2 3 3 3 3 2 1 1 2 2 3 4 5 6 6 7 9 9 9 10 10 11 11 12 12
4 4 4 4 4 4 4 5 5 5 6 5 5 4 4 3 4 3 3 3 3 3 3 3 2 1 2 3 2 2 4 5 7 8 9 9 10 10 10 10 11 12 12
3 4 4 5 5 4 5 5 5 5 6 6 6 5 5 5 4 3 4 4 3 2 2 3 3 2 2 1 1 2 3 4 6 7 8 9 10 10 10 11 12 12 12
4 4 4 4 4 5 5 5 5 5 5 5 5 5 5 6 6 6 5 5 4 3 3 3 3 2 2 2 1 2 3 2 3 5 7 8 9 10 10 11 12 12 12
5 4 4 4 4 4 5 5 5 5 5 5 4 5 5 7 8 7 5 5 5 4 3 3 3 2 3 2 3 2 3 3 3 2 2 4 5 6 9 11 12 12 13
4 4 4 5 5 5 7 8 6 5 6 6 5 5 5 6 7 9 9 9 8 7 6 5 4 5 5 4 3 3 2 2 3 2 1 4 3 4 7 9 11 12 13
3 4 4 5 5 6 8 9 9 6 6 6 6 5 4 5 6 4 6 8 8 10 10 7 6 7 6 5 4 4 4 4 5 3 1 4 3 4 6 9 11 12 13
2 2 3 4 4 5 7 8 8 5 5 5 6 6 6 5 5 6 5 5 5 6 7 6 7 7 6 6 6 5 5 3 3 3 2 3 3 4 5 8 11 11 11
2 2 2 3 3 4 5 7 6 3 4 5 5 5 6 6 8 8 6 5 5 5 7 8 9 8 8 8 6 2 2 2 3 3 2 3 3 3 4 4 8 9 11
2 2 2 2 3 3 5 6 6 3 4 3 3 4 6 7 8 8 6 6 6 6 4 3 4 5 5 6 7 5 5 3 3 3 3 2 2 2 4 3 3 6 8
Wind_Direction
148 141 137 138 138 141 140 134 128 124 118 117 119 119 116 110 106 102 100 102 108 116 119 124 120 114 110 106 99 94 87 82 78 74 70 68 64 62 61 60 61 60 56
149 146 142 140 141 146 146 142 135 125 120 118 113 114 114 113 105 101 96 95 96 103 109 114 117 115 111 107 100 96 90 86 78 74 70 65 60 58 59 60 58 58 55
150 146 144 144 144 144 134 128 119 113 112 113 113 113 113 112 110 104 101 97 93 90 92 105 110 112 109 107 101 96 90 87 81 72 67 63 59 59 52 52 58 57 53
148 144 147 149 145 139 130 131 133 120 113 116 115 111 109 109 111 110 108 104 99 93 92 94 106 109 108 107 102 97 92 83 77 67 60 56 51 50 46 54 56 53 47
145 142 148 146 143 137 135 140 135 133 126 121 117 103 99 110 115 117 113 110 108 105 101 99 102 105 106 101 97 97 92 85 75 65 54 43 37 33 33 45 47 42 33
137 136 140 143 137 139 139 133 131 127 133 131 115 93 73 85 102 117 125 121 118 115 110 107 106 106 105 101 95 96 86 79 70 63 50 32 20 14 10 19 29 24 15
134 134 138 141 137 143 150 142 129 131 130 128 107 86 46 51 75 103 119 123 125 124 119 114 111 105 95 94 97 100 85 70 57 48 33 19 9 1 359 4 2 354 350
133 140 139 143 139 132 135 140 135 131 135 137 130 126 111 39 11 65 128 144 138 130 131 135 130 124 112 99 90 94 86 64 43 31 23 14 2 355 349 348 345 343 340
131 137 145 143 143 144 153 152 147 140 153 157 143 147 154 188 188 323 219 159 159 146 149 153 157 157 141 130 113 99 72 43 10 352 346 345 336 329 327 328 331 329 330
121 127 138 140 142 140 153 163 151 144 150 162 168 147 141 145 151 164 285 259 187 178 182 173 166 162 155 149 143 113 82 21 324 324 320 317 315 313 311 314 317 316 318
126 134 135 139 143 147 152 154 140 144 146 160 171 161 125 99 116 148 183 217 255 228 202 187 177 171 167 165 166 159 295 288 295 304 304 307 310 308 308 309 309 308 307
124 136 143 147 146 148 157 160 151 156 155 147 153 167 161 160 168 156 169 185 209 242 227 190 183 186 184 181 187 196 272 301 300 299 296 298 303 307 307 305 304 303 301
176 184 168 165 156 158 161 154 149 160 162 160 162 169 179 180 161 151 148 162 182 246 254 238 205 197 195 196 209 222 249 281 295 300 297 295 300 303 302 302 302 300 298
186 179 171 175 173 163 164 153 148 161 162 162 165 155 159 184 166 158 155 151 151 220 252 246 245 206 201 203 220 227 247 270 283 291 298 301 299 298 295 295 297 298 297
179 173 169 172 174 169 167 160 165 169 161 166 171 166 169 167 156 158 154 157 158 182 224 232 225 223 212 211 223 235 249 266 278 288 291 294 299 295 291 291 292 293 293
181 170 169 171 174 178 174 171 173 175 169 180 178 170 176 176 154 152 158 157 156 167 205 222 223 230 214 223 233 239 250 264 273 284 287 290 293 296 293 289 289 289 290
183 173 174 178 184 189 188 184 188 181 182 189 185 180 192 178 168 167 157 154 153 154 197 240 246 222 199 217 255 253 257 265 271 280 285 288 291 293 294 292 292 290 289
186 178 177 182 191 195 193 190 193 192 192 196 197 188 197 185 184 180 172 173 176 171 179 217 243 235 232 222 237 255 269 269 271 278 283 287 293 294 292 295 298 296 293
186 182 183 191 197 197 195 198 197 198 201 201 197 195 200 189 197 194 188 188 186 181 172 192 227 234 246 240 253 273 278 280 280 278 280 287 291 294 294 295 295 295 294
189 194 196 202 202 203 203 202 197 199 204 205 203 203 202 201 203 195 195 195 185 182 177 188 218 228 239 248 225 254 281 277 285 286 282 288 291 295 295 294 293 292 291
195 194 196 205 204 205 210 206 202 199 199 203 208 211 213 212 208 201 200 195 186 189 189 200 221 225 231 223 230 230 257 290 286 266 291 293 292 293 293 293 290 289 291
194 194 204 209 212 222 220 215 208 199 199 200 208 214 217 217 218 219 219 209 196 195 201 203 216 225 236 227 223 224 239 286 289 269 272 289 281 279 282 282 284 289 292
196 206 214 214 219 226 221 217 214 205 201 203 206 209 221 225 218 213 226 225 222 222 214 206 215 225 226 217 207 223 228 232 248 256 263 278 272 273 276 282 288 290 291
211 220 227 224 226 235 227 223 220 212 207 209 209 208 212 220 216 208 206 213 221 229 229 220 220 227 225 214 207 214 221 234 262 261 213 261 277 272 286 284 287 290 294
244 238 233 223 231 251 241 233 225 207 211 218 216 212 211 217 226 218 206 213 229 242 244 234 235 240 243 238 219 178 193 234 272 266 214 228 270 288 286 278 284 293 299
245 245 252 240 234 248 252 244 230 212 214 223 224 224 227 226 229 223 208 209 226 237 228 230 236 241 236 231 221 204 198 217 249 262 222 213 259 305 302 279 279 293 298
Height
1508 1510 1512 1515 1517 1519 1521 1522 1525 1527 1528 1530 1531 1532 1534 1535 1536 1537 1538 1539 1540 1541 1541 1542 1542 1542 1542 1542 1542 1542 1542 1542 1542 1542 1541 1541 1541 1540 1540 1539 1538 1538 1537
1506 1508 1510 1512 1515 1517 1519 1521 1523 1525 1527 1529 1530 1531 1533 1534 1535 1536 1537 1538 1539 1540 1541 1541 1541 1541 1541 1542 1542 1542 1541 1541 1541 1541 1540 1540 1540 1539 1539 1538 1538 1537 1536
1504 1506 1508 1511 1513 1515 1518 1520 1522 1524 1526 1527 1529 1530 1532 1533 1534 1535 1536 1537 1538 1539 1539 1540 1540 1540 1540 1541 1541 1541 1540 1540 1540 1540 1540 1539 1539 1539 1538 1538 1537 1536 1535
1503 1505 1507 1509 1511 1514 1516 1517 1519 1522 1524 1526 1527 1529 1530 1532 1533 1534 1535 1536 1537 1537 1538 1538 1539 1539 1539 1540 1540 1539 1539 1539 1539 1539 1539 1538 1538 1538 1537 1537 1536 1535 1534
1501 1503 1505 1507 1509 1512 1514 1516 1518 1520 1521 1523 1525 1527 1529 1530 1531 1532 1533 1534 1535 1536 1537 1537 1537 1538 1538 1538 1538 1538 1538 1538 1538 1537 1537 1537 1537 1536 1536 1535 1535 1534 1533
1499 1501 1503 1505 1507 1510 1511 1514 1516 1518 1520 1522 1523 1526 1527 1528 1530 1531 1532 1533 1534 1534 1535 1535 1536 1536 1536 1536 1537 1537 1537 1536 1536 1536 1535 1535 1535 1535 1534 1534 1533 1532 1531
1497 1499 1501 1503 1505 1507 1509 1511 1513 1515 1517 1519 1521 1523 1525 1527 1528 1529 1530 1531 1531 1532 1533 1533 1534 1534 1534 1535 1535 1535 1535 1534 1534 1534 1533 1533 1533 1533 1532 1532 1531 1530 1529
1495 1497 1499 1501 1503 1505 1506 1508 1511 1512 1514 1517 1518 1520 1523 1526 1526 1527 1528 1529 1529 1530 1531 1532 1532 1532 1532 1532 1533 1533 1533 1532 1532 1532 1531 1531 1530 1530 1530 1529 1528 1527 1526
1493 1495 1497 1499 1501 1502 1504 1506 1508 1509 1511 1514 1516 1517 1519 1520 1523 1525 1525 1526 1527 1528 1529 1529 1530 1530 1530 1530 1530 1530 1530 1530 1530 1530 1529 1529 1528 1528 1527 1527 1526 1525 1524
1491 1493 1495 1497 1499 1501 1502 1504 1506 1508 1509 1511 1513 1514 1516 1517 1519 1521 1523 1523 1524 1525 1526 1527 1527 1528 1528 1528 1528 1528 1528 1528 1527 1527 1527 1526 1525 1525 1524 1524 1523 1522 1520
1489 1491 1493 1495 1497 1499 1501 1502 1503 1505 1507 1508 1510 1511 1512 1514 1515 1517 1518 1520 1522 1522 1523 1524 1524 1525 1525 1525 1525 1525 1525 1525 1524 1524 1524 1523 1522 1521 1521 1520 1519 1518 1517
1487 1489 1492 1493 1495 1496 1498 1500 1501 1503 1505 1506 1508 1509 1510 1511 1512 1513 1514 1516 1518 1519 1520 1521 1521 1522 1522 1522 1522 1522 1522 1522 1521 1521 1520 1520 1519 1518 1517 1516 1515 1514 1513
1485 1487 1489 1491 1492 1494 1496 1497 1499 1501 1502 1503 1505 1506 1507 1508 1509 1510 1512 1513 1514 1516 1517 1517 1518 1518 1519 1519 1519 1519 1519 1519 1518 1517 1517 1516 1515 1514 1513 1512 1511 1510 1508
1483 1485 1487 1489 1490 1492 1493 1495 1496 1498 1500 1500 1502 1503 1504 1505 1506 1507 1508 1509 1510 1512 1513 1514 1514 1515 1515 1515 1515 1516 1515 1515 1514 1513 1512 1512 1511 1510 1509 1508 1507 1505 1504
1481 1483 1485 1486 1487 1489 1490 1492 1493 1495 1496 1497 1499 1500 1501 1501 1502 1504 1505 1506 1508 1508 1509 1510 1511 1511 1511 1512 1512 1511 1511 1511 1510 1509 1508 1507 1507 1506 1505 1503 1502 1501 1500
1479 1480 1481 1483 1485 1486 1488 1489 1490 1492 1493 1494 1495 1497 1497 1499 1499 1500 1501 1502 1503 1505 1505 1506 1507 1508 1508 1508 1508 1507 1507 1507 1506 1505 1504 1503 1502 1501 1500 1498 1497 1496 1495
1476 1477 1479 1481 1482 1484 1485 1486 1487 1488 1490 1491 1492 1493 1494 1495 1496 1497 1498 1499 1500 1501 1501 1502 1503 1504 1504 1504 1504 1503 1503 1502 1501 1500 1500 1498 1497 1496 1495 1493 1492 1491 1489
1473 1474 1476 1477 1479 1480 1482 1483 1484 1485 1486 1487 1488 1489 1490 1491 1493 1494 1494 1495 1496 1497 1498 1498 1499 1499 1499 1500 1499 1499 1498 1497 1497 1496 1495 1494 1492 1491 1490 1488 1487 1485 1484
1470 1471 1473 1474 1475 1477 1478 1479 1480 1482 1483 1484 1484 1485 1486 1488 1489 1490 1490 1491 1492 1493 1493 1494 1494 1495 1495 1495 1495 1494 1494 1493 1492 1491 1490 1489 1488 1486 1484 1483 1482 1480 1478
1467 1468 1469 1471 1472 1473 1474 1476 1477 1478 1478 1479 1481 1482 1483 1484 1485 1486 1487 1487 1488 1489 1489 1489 1490 1490 1490 1490 1490 1489 1488 1488 1487 1486 1485 1484 1483 1481 1479 1478 1476 1475 1473
1464 1465 1466 1467 1468 1469 1471 1472 1473 1474 1474 1475 1477 1478 1479 1480 1481 1482 1482 1483 1484 1484 1484 1485 1485 1485 1485 1485 1485 1484 1484 1483 1482 1481 1480 1479 1478 1476 1474 1473 1471 1469 1468
1460 1461 1462 1463 1464 1465 1467 1468 1469 1469 1470 1471 1472 1474 1475 1476 1476 1477 1478 1478 1479 1479 1479 1480 1480 1480 1480 1480 1480 1480 1479 1477 1476 1476 1474 1474 1473 1470 1469 1467 1466 1464 1462
1456 1457 1458 1459 1460 1461 1463 1464 1465 1465 1466 1467 1468 1469 1470 1471 1472 1472 1473 1473 1474 1474 1475 1475 1475 1475 1475 1475 1475 1474 1474 1473 1471 1471 1469 1467 1467 1465 1464 1462 1461 1459 1457
1453 1454 1454 1455 1456 1457 1459 1459 1460 1461 1462 1462 1463 1464 1465 1466 1467 1467 1468 1468 1468 1469 1470 1470 1470 1470 1471 1470 1470 1470 1469 1467 1466 1466 1465 1462 1460 1459 1458 1457 1455 1454 1452
1449 1450 1450 1451 1452 1453 1454 1455 1456 1456 1456 1457 1458 1459 1460 1461 1462 1462 1463 1463 1463 1464 1465 1465 1465 1465 1465 1465 1465 1464 1463 1462 1460 1460 1459 1458 1455 1454 1452 1451 1450 1448 1447
1446 1447 1447 1448 1448 1449 1450 1451 1451 1451 1451 1452 1453 1454 1455 1455 1456 1456 1457 1457 1457 1458 1459 1459 1459 1460 1460 1460 1460 1459 1458 1457 1456 1454 1454 1453 1451 1450 1446 1444 1444 1443 1441